Regional Weather Roundup
Issued by NWS Albany, NY

Home | Current Version | Previous Version | Text Only | Print | Product List | Glossary On
Versions: 1 2 3 4 5 6 7 8 9 10 11 12 13 14 15 16 17 18 19 20 21 22 23 24 25 26 27
000
ASUS41 KALY 251010
RWRALY

NEW YORK STATE HOURLY WEATHER ROUNDUP
NATIONAL WEATHER SERVICE ALBANY NY
600 AM EDT MON SEP 25 2017

NOTE: "FAIR" INDICATES FEW OR NO CLOUDS BELOW 12,000 FEET WITH NO
SIGNIFICANT WEATHER AND/OR NO OBSTRUCTIONS TO VISIBILITY.

NYZ032-033-038>043-046>054-057>066-NYZ062>081-082-084-251100-
EAST


CITY           SKY/WX    TMP DP  RH WIND       PRES   REMARKS
ALBANY         PTCLDY    65  63  93 CALM      30.08S
GLENS FALLS    FOG       59  59 100 CALM      30.08S VSB 1/4
POUGHKEEPSIE   CLEAR     62  60  93 CALM      30.05R
NEWBURGH       CLEAR     66  66 100 CALM      30.07S
MONTGOMERY     FOG       62  62 100 CALM      30.05S VSB 1/4
WHITE PLAINS   CLEAR     68  65  90 CALM      30.03R
ISLIP          CLEAR     65  62  90 CALM      30.03R
NEW YORK CITY  CLEAR     72  66  81 CALM      30.02R
$$

NYZ005>009-017-018-044>046-055-056-251100-
CENTRAL


CITY           SKY/WX    TMP DP  RH WIND       PRES   REMARKS
FULTON         FOG       60  59  96 CALM      30.08S VSB 1/4
SYRACUSE       CLEAR     63  63 100 E3        30.08S
ROME           CLEAR     61  60  97 CALM      30.10S FOG
ELMIRA         FOG       64  64 100 W3        30.11S VSB 1/4
BINGHAMTON     CLEAR     65  64  97 E3        30.13R
MONTICELLO     CLEAR     64  61  90 CALM      30.12R
$$

NYZ026>034-041>043-087-251100-
NORTH


CITY           SKY/WX    TMP DP  RH WIND       PRES   REMARKS
WATERTOWN      CLEAR     59  59 100 E3        30.08R FOG
FORT DRUM      NOT AVBL
OGDENSBURG     FAIR      62  61  97 CALM      30.08R FOG
MASSENA        FOG       62  61  96 CALM      30.09R VSB 1
SARANAC LAKE   FOG       52  52 100 CALM      30.14S VSB 1/4
PLATTSBURGH    CLEAR     64  62  93 CALM      30.07R
$$

NYZ001>004-010>016-019>021-085-251100-
WEST


CITY           SKY/WX    TMP DP  RH WIND       PRES   REMARKS
NIAGARA FALLS  PTCLDY    66  61  84 CALM      30.08S HAZE
BUFFALO        CLEAR     67  64  90 SE5       30.09S
DUNKIRK        PTCLDY    62  61  96 CALM      30.09R
JAMESTOWN      CLEAR     67  64  90 CALM      30.15R
WELLSVILLE     FOG       63  60  90 CALM      30.17S VSB 1/4
ROCHESTER      CLEAR     65  65 100 SW5       30.10R
PENN YAN       PTCLDY    65  63  93 W3        30.12R FOG
$$

             KEY
       WCI = WIND CHILL INDEX
       VSB = VISIBILITY
       HX  = HEAT INDEX
$$




USA.gov is the U.S. government's official web portal to all federal, state and local government web resources and services.